Wind_Speed
49 48 46 42 40 39 36 37 36 35 34 34 34 29 21 15 16 12 14 10 7 7 6 4 5 12 15 20 24 26 23 21 22 20 20 19 16 14 13 14 13 13 14 14
55 53 51 50 47 46 42 41 41 44 42 40 39 39 36 33 31 26 19 15 12 11 16 21 17 13 12 14 19 19 19 20 18 19 16 16 16 13 10 12 13 12 13 14
60 56 58 54 55 53 53 49 50 50 51 49 48 45 43 38 38 35 36 30 29 28 30 27 28 30 24 22 19 14 14 18 17 15 15 12 13 12 10 8 10 11 12 12
67 62 65 59 61 59 59 55 58 55 56 55 56 58 54 48 46 42 38 40 39 36 36 32 31 33 30 29 30 14 12 13 16 14 12 12 9 8 7 6 6 7 10 11
73 68 70 68 64 67 62 63 62 60 61 59 60 63 63 58 55 49 44 42 45 46 45 41 40 38 39 37 35 30 22 17 16 16 12 9 9 6 4 3 3 3 4 6
72 73 74 72 72 73 70 70 70 67 66 64 66 68 72 63 62 55 49 47 38 29 53 52 45 43 44 42 40 37 34 32 23 15 16 11 7 8 6 2 1 5 5 5
73 73 73 74 75 74 74 74 74 74 73 73 76 73 82 67 65 62 58 60 61 51 43 47 49 49 49 49 45 44 38 36 36 27 18 16 12 8 8 8 6 4 6 6
76 76 72 74 75 74 76 75 77 74 79 78 78 81 88 74 71 70 69 67 67 64 62 68 63 56 53 53 51 47 46 42 41 38 30 20 19 16 13 10 11 11 11 10
72 72 70 76 78 78 76 80 75 78 80 80 81 87 88 84 81 82 77 73 70 72 72 70 67 64 61 50 50 52 52 49 47 45 38 30 22 21 20 16 15 16 16 17
68 71 71 70 76 77 75 76 78 78 78 80 82 86 93 88 88 83 81 79 80 80 77 74 72 70 69 66 62 51 55 53 51 49 45 42 34 28 25 23 22 19 19 20
67 67 68 65 74 71 70 72 74 77 75 77 78 86 91 94 83 82 85 82 82 80 80 76 77 74 74 72 70 65 63 61 60 58 55 48 44 38 29 27 26 27 25 23
67 72 74 70 72 73 75 73 72 73 74 74 75 78 90 91 90 84 85 81 82 78 80 78 77 76 77 77 74 73 68 66 64 61 58 54 49 46 41 37 33 30 31 29
68 71 71 72 74 75 75 71 72 75 77 75 79 76 95 88 91 98 82 77 76 80 81 82 78 74 73 76 78 78 77 73 69 66 63 60 56 52 47 43 39 36 32 32
69 70 70 69 75 73 69 73 76 76 76 76 76 75 93 98 96 93 85 78 76 78 81 81 80 78 75 76 75 75 76 75 75 73 69 65 60 57 53 47 42 40 38 35
70 71 71 72 74 77 75 74 77 79 78 81 78 83 89 93 99 100 87 85 81 80 86 84 83 79 80 79 78 75 74 74 72 73 71 70 66 63 58 53 48 45 43 41
62 64 64 64 68 70 73 75 74 75 76 76 74 78 86 96 97 95 89 85 83 85 88 91 90 82 86 81 79 79 76 75 72 69 68 69 69 65 62 58 54 50 46 45
58 59 60 62 67 70 73 80 77 76 77 81 82 83 86 94 89 85 85 84 82 88 91 99 93 85 89 88 84 81 79 76 75 72 70 66 66 62 60 58 56 54 52 50
60 62 65 67 71 74 81 84 78 79 83 87 89 92 93 95 93 89 89 88 91 88 86 90 90 92 92 91 89 87 83 79 77 75 73 70 64 62 59 62 60 57 56 54
62 64 69 72 75 78 86 87 79 83 89 99 96 96 98 100 100 97 100 98 94 87 83 86 90 90 95 94 93 89 88 85 79 77 75 73 68 64 60 57 58 58 46 53
69 68 73 76 79 86 92 86 85 84 89 90 90 95 97 97 96 95 98 97 99 97 93 91 89 93 90 97 95 93 90 88 85 80 78 76 71 67 63 60 57 54 55 61
75 80 82 85 88 93 87 89 90 89 86 94 95 93 95 98 99 97 100 99 99 99 100 96 95 90 93 94 97 95 93 91 88 85 81 78 75 71 68 65 60 62 61 60
82 84 88 89 92 92 87 83 80 77 85 82 84 85 83 86 87 88 88 86 87 88 91 91 89 90 93 90 96 94 92 93 90 87 83 82 76 72 71 68 67 68 64 62
78 74 70 71 75 75 77 78 74 76 77 76 76 78 78 75 77 78 80 82 83 83 83 83 84 84 89 90 91 93 90 91 92 89 86 82 81 77 76 72 67 67 70 66
57 60 64 66 68 68 71 71 65 67 66 67 67 67 64 63 63 63 66 70 73 76 79 79 75 81 85 88 89 88 90 87 88 91 88 84 82 82 79 76 73 74 80 75
52 51 52 56 57 61 62 69 59 64 60 58 58 53 48 45 45 46 45 48 52 57 63 66 70 71 77 80 83 81 85 85 84 86 89 87 84 82 83 77 79 81 81 84
41 40 42 49 48 45 48 51 54 49 48 47 47 37 32 32 35 35 35 37 40 44 47 51 57 61 63 70 73 74 76 80 81 80 81 86 87 81 82 88 85 84 87 90
Wind_Direction
239 238 234 234 236 241 244 249 251 256 257 251 234 258 236 221 242 267 236 229 260 239 248 313 354 15 29 18 4 5 17 28 30 39 45 49 56 73 94 100 106 112 121 122
241 241 242 240 238 238 242 245 250 255 256 257 257 262 263 267 272 260 264 262 258 249 259 300 305 319 339 355 357 354 5 14 25 27 37 43 49 59 72 108 114 123 125 124
244 244 246 243 244 242 240 244 247 250 255 258 260 259 260 261 265 268 272 269 267 275 283 293 300 303 305 313 333 345 350 359 6 16 19 30 39 55 61 86 126 131 133 134
247 246 248 247 250 250 246 245 246 245 250 254 261 263 260 259 259 258 263 270 277 277 280 282 284 290 293 301 308 317 327 338 344 351 3 8 25 38 66 66 92 144 151 152
247 249 251 249 250 254 250 253 250 248 251 252 253 258 260 260 259 257 259 261 272 273 276 276 279 282 285 291 296 302 301 305 322 324 331 347 352 7 30 83 97 98 164 174
247 248 249 250 251 253 253 254 256 254 254 254 255 257 256 253 258 262 260 257 243 238 273 273 272 274 279 281 286 289 294 299 302 307 305 305 318 325 315 316 177 157 153 172
248 249 249 251 252 253 253 254 256 258 258 259 256 256 258 253 257 256 257 260 258 255 240 245 265 269 273 276 279 281 281 285 291 294 287 289 279 276 283 277 266 226 202 193
250 249 252 253 252 253 255 255 254 257 258 259 262 260 260 258 257 254 251 254 260 259 251 255 262 266 268 272 271 271 273 276 280 283 283 273 274 266 258 261 273 257 244 230
249 251 251 252 252 253 253 255 256 254 255 257 260 260 262 262 259 257 256 256 257 258 259 260 262 263 264 263 268 271 270 269 273 278 279 272 265 268 260 254 251 257 253 248
249 250 249 252 253 254 253 254 255 255 257 258 259 261 261 259 261 262 261 258 255 255 256 257 259 260 260 261 259 261 267 268 271 271 272 273 271 264 264 264 260 257 255 253
248 251 249 250 253 254 255 253 255 257 256 257 258 260 261 263 259 258 260 258 258 256 255 255 256 256 258 258 259 259 259 261 267 268 270 269 271 271 260 258 262 259 257 251
253 252 254 251 255 256 254 257 257 258 258 258 259 262 261 263 263 258 256 257 259 258 260 258 256 255 255 256 257 258 258 259 260 262 263 264 263 265 265 258 254 258 258 257
253 255 255 256 255 254 261 260 259 259 258 259 259 259 265 262 261 259 258 259 261 263 259 258 257 255 254 254 254 254 256 256 257 257 259 261 263 264 261 260 259 257 256 255
254 255 256 258 260 259 254 259 260 259 258 256 259 258 263 263 262 264 262 259 257 258 260 258 257 255 252 252 252 252 253 253 254 255 256 258 257 259 261 259 256 253 252 251
256 257 258 258 260 261 259 257 259 261 260 259 258 258 260 264 265 261 261 260 259 258 259 258 258 255 253 250 249 249 250 251 252 253 252 254 256 256 256 256 256 252 245 248
258 259 259 259 259 260 261 258 255 254 257 259 257 257 257 258 265 268 267 261 257 256 254 255 251 250 252 251 249 248 247 249 249 249 250 250 251 252 254 253 251 250 246 242
266 263 262 262 263 262 262 260 261 260 258 258 257 258 260 262 260 262 263 262 258 252 251 252 252 250 251 251 249 248 246 244 247 247 247 247 247 248 249 251 250 249 247 244
267 269 269 269 268 267 266 265 264 265 267 265 261 259 260 262 263 263 261 259 259 257 255 255 253 250 248 247 248 247 246 245 242 244 245 245 244 244 243 242 241 242 245 247
271 269 269 269 269 268 268 270 268 267 266 265 267 267 265 264 262 261 260 259 258 256 255 253 254 250 247 245 244 244 245 245 242 241 241 243 241 241 241 237 237 238 245 255
272 272 272 271 271 272 272 274 273 269 268 268 267 264 264 264 263 262 261 259 258 256 253 255 252 250 248 246 241 241 240 241 241 239 239 239 239 238 238 236 232 229 220 244
271 275 276 276 277 277 276 276 275 275 273 270 267 266 266 264 263 262 263 261 260 259 257 252 251 247 246 245 244 239 237 238 238 237 236 237 238 236 235 233 227 220 218 223
275 276 277 279 279 280 279 277 276 276 273 271 271 269 267 266 266 265 262 259 258 256 254 253 247 244 243 244 245 241 236 236 235 236 235 234 234 234 235 233 226 222 220 226
278 279 280 278 278 278 278 278 278 276 275 276 276 275 273 271 268 264 262 259 256 254 252 249 246 242 239 238 240 241 238 234 234 233 232 232 232 230 231 229 226 225 221 220
279 282 282 282 281 281 282 280 281 278 279 279 278 278 278 275 273 271 265 260 259 255 251 248 244 240 238 236 235 236 237 235 232 231 231 230 230 230 230 230 227 222 220 219
288 286 285 283 284 283 281 283 279 279 281 282 282 283 283 281 277 276 270 265 262 257 251 247 246 242 238 236 234 232 234 235 232 230 229 228 228 229 228 225 228 224 221 223
295 297 302 298 292 287 286 285 281 279 278 277 280 289 282 279 279 279 275 268 261 256 251 246 241 239 237 237 235 232 232 233 233 231 228 227 226 226 228 228 226 227 224 224
Height
10993 10997 11002 11007 11009 11011 11014 11015 11016 11017 11019 11022 11023 11025 11028 11027 11028 11028 11027 11028 11030 11031 11033 11033 11033 11033 11032 11033 11033 11032 11031 11029 11027 11024 11022 11021 11019 11019 11018 11018 11018 11019 11020 11021
10984 10989 10994 10997 11001 11004 11007 11009 11010 11009 11011 11012 11016 11017 11019 11022 11024 11026 11029 11027 11028 11029 11030 11030 11031 11032 11035 11035 11035 11034 11033 11031 11029 11028 11026 11025 11023 11021 11021 11020 11020 11022 11023 11024
10974 10982 10981 10988 10990 10994 10998 11002 11003 11003 11003 11005 11007 11009 11012 11016 11019 11021 11022 11025 11025 11027 11027 11026 11028 11029 11032 11034 11036 11036 11034 11033 11032 11030 11029 11028 11026 11024 11024 11023 11023 11023 11025 11026
10962 10971 10968 10978 10978 10983 10985 10993 10990 10997 10996 10998 10998 10996 11001 11007 11010 11016 11020 11022 11022 11023 11023 11023 11025 11025 11026 11029 11033 11036 11036 11035 11033 11032 11030 11030 11029 11028 11026 11026 11025 11025 11025 11026
10950 10959 10958 10963 10969 10966 10976 10976 10980 10986 10986 10989 10990 10986 10986 10994 10998 11008 11015 11020 11020 11020 11018 11020 11019 11022 11023 11024 11027 11031 11033 11035 11035 11033 11031 11030 11030 11029 11029 11027 11027 11026 11026 11027
10941 10941 10945 10954 10954 10955 10962 10963 10965 10971 10974 10979 10976 10973 10970 10986 10987 10998 11006 11013 11007 11031 11014 11013 11015 11015 11017 11019 11020 11024 11027 11028 11031 11033 11031 11029 11029 11029 11029 11028 11028 11027 11027 11027
10927 10928 10933 10938 10940 10945 10946 10950 10951 10955 10959 10960 10955 10962 10945 10974 10978 10987 10993 10988 10993 11007 11006 11003 11008 11009 11012 11011 11015 11015 11020 11023 11024 11027 11030 11028 11027 11026 11027 11028 11027 11027 11026 11026
10908 10913 10923 10923 10924 10930 10930 10934 10935 10945 10939 10943 10945 10937 10929 10958 10962 10966 10972 10977 10977 10984 10992 10992 10996 11002 11004 11004 11005 11008 11009 11013 11016 11020 11023 11026 11026 11025 11024 11025 11026 11026 11026 11025
10892 10898 10906 10902 10906 10911 10919 10913 10926 10922 10921 10925 10926 10919 10917 10930 10940 10940 10953 10963 10970 10970 10971 10976 10981 10988 10992 10996 10995 10998 10999 11002 11005 11010 11014 11018 11021 11022 11022 11022 11021 11023 11023 11024
10880 10882 10886 10892 10886 10890 10899 10902 10900 10904 10909 10909 10907 10899 10894 10909 10910 10927 10935 10943 10944 10949 10956 10961 10965 10971 10975 10979 10984 10988 10987 10990 10993 10997 11003 11007 11012 11015 11017 11018 11018 11018 11019 11019
10863 10864 10870 10875 10865 10876 10881 10881 10884 10888 10894 10892 10893 10874 10873 10873 10901 10902 10901 10914 10923 10930 10934 10944 10946 10954 10956 10961 10965 10972 10977 10980 10981 10985 10989 10996 10999 11004 11008 11009 11011 11012 11013 11013
10851 10846 10849 10860 10857 10858 10858 10867 10871 10871 10873 10876 10875 10867 10853 10851 10865 10882 10882 10893 10898 10911 10915 10923 10929 10935 10940 10941 10947 10951 10958 10961 10966 10970 10975 10980 10987 10992 10995 10998 11001 11004 11005 11007
10829 10830 10837 10837 10837 10842 10844 10856 10850 10849 10852 10859 10853 10858 10811 10845 10835 10830 10869 10882 10887 10888 10894 10896 10906 10913 10921 10922 10927 10932 10936 10944 10948 10955 10961 10966 10971 10977 10981 10984 10989 10994 10996 10999
10813 10814 10818 10822 10816 10826 10836 10827 10827 10831 10834 10835 10836 10837 10798 10795 10816 10823 10843 10859 10867 10865 10864 10872 10882 10893 10899 10900 10905 10911 10915 10922 10930 10939 10945 10951 10957 10963 10968 10973 10977 10980 10984 10988
10795 10798 10803 10804 10801 10802 10810 10813 10809 10809 10809 10808 10814 10811 10798 10784 10776 10790 10826 10834 10844 10846 10841 10850 10855 10866 10870 10878 10884 10891 10896 10902 10911 10919 10927 10932 10939 10945 10952 10959 10963 10966 10970 10974
10780 10782 10784 10785 10783 10781 10783 10786 10790 10787 10787 10788 10791 10788 10774 10755 10764 10780 10797 10809 10816 10816 10813 10814 10823 10839 10840 10851 10860 10867 10877 10882 10892 10900 10907 10915 10920 10928 10935 10941 10946 10951 10956 10959
10764 10766 10767 10767 10763 10764 10762 10753 10765 10770 10770 10765 10764 10764 10761 10744 10756 10763 10764 10768 10778 10781 10784 10780 10799 10817 10814 10824 10835 10843 10852 10862 10870 10879 10887 10895 10903 10912 10919 10924 10932 10937 10940 10943
10751 10750 10747 10748 10745 10744 10732 10730 10747 10749 10744 10737 10735 10731 10732 10728 10734 10739 10740 10740 10735 10750 10763 10766 10773 10783 10789 10797 10807 10819 10829 10839 10849 10858 10866 10875 10886 10893 10900 10906 10915 10922 10927 10932
10733 10733 10729 10726 10723 10720 10703 10706 10729 10723 10710 10694 10704 10706 10703 10700 10703 10710 10702 10706 10716 10728 10732 10735 10739 10750 10757 10769 10779 10793 10802 10814 10827 10836 10845 10854 10865 10874 10882 10890 10897 10906 10917 10924
10712 10714 10708 10704 10701 10693 10680 10693 10691 10690 10679 10680 10678 10668 10666 10667 10671 10675 10672 10677 10681 10690 10700 10706 10714 10716 10728 10732 10750 10763 10776 10787 10800 10812 10823 10833 10844 10855 10864 10871 10880 10890 10894 10903
10693 10687 10683 10678 10674 10658 10665 10662 10659 10656 10656 10637 10636 10643 10640 10636 10635 10644 10642 10648 10649 10656 10660 10671 10679 10694 10694 10704 10713 10733 10748 10760 10773 10788 10801 10812 10823 10835 10843 10852 10863 10870 10876 10886
10671 10669 10660 10655 10644 10634 10633 10630 10630 10628 10611 10613 10609 10607 10610 10607 10608 10605 10608 10613 10614 10618 10623 10631 10647 10657 10664 10682 10686 10701 10721 10733 10748 10761 10777 10788 10802 10814 10822 10831 10839 10848 10857 10862
10647 10645 10637 10630 10619 10617 10609 10602 10605 10597 10592 10588 10586 10579 10576 10579 10575 10575 10575 10577 10581 10589 10592 10598 10610 10627 10632 10645 10657 10671 10689 10706 10722 10737 10752 10765 10778 10791 10797 10808 10819 10831 10837 10844
10634 10628 10616 10608 10600 10594 10583 10578 10580 10572 10570 10565 10562 10558 10556 10551 10548 10547 10548 10551 10554 10558 10563 10571 10583 10591 10602 10615 10630 10647 10660 10678 10696 10711 10728 10743 10756 10767 10777 10789 10800 10807 10813 10822
10615 10610 10602 10591 10584 10573 10565 10554 10560 10551 10549 10546 10541 10539 10537 10536 10531 10529 10530 10531 10533 10533 10538 10547 10559 10569 10581 10593 10608 10627 10638 10654 10671 10685 10702 10720 10734 10745 10756 10767 10774 10783 10791 10798
10601 10594 10585 10571 10563 10557 10549 10542 10535 10537 10534 10531 10527 10528 10526 10523 10520 10518 10517 10516 10516 10516 10521 10530 10540 10550 10564 10576 10593 10610 10621 10634 10648 10666 10682 10699 10712 10726 10736 10744 10752 10760 10769 10774